Wallops Island, VA

8:31 AM EST on December 08, 2019 (GMT -0500)
Wallops Flight Facility

Weather History for KWAL - October, 2019

Change the Weather History Date:

Thursday, October 17, 2019

  Actual Average Record
Temperature  
Mean Temperature 57 °F 59 °F  
Max Temperature 62 °F 68 °F 79 °F (1972)
Min Temperature 52 °F 50 °F 38 °F (1977)
Degree Days  
Heating Degree Days 8    
Month to date heating degree days 34  
Since 1 July heating degree days 43  
Cooling Degree Days 0    
Month to date cooling degree days 53  
Year to date cooling degree days 1800  
Growing Degree Days 7 (Base 50)    
Moisture  
Dew Point 39 °F    
Average Humidity 54    
Maximum Humidity 66    
Minimum Humidity 42    
Precipitation  
Precipitation 0.00 in 0.10 in 2.78 in (1999)
Month to date precipitation 2.65 1.73  
Year to date precipitation 36.98 33.10  
Sea Level Pressure  
Sea Level Pressure 29.65 in    
Wind  
Wind Speed 15 mph (WNW)    
Max Wind Speed 30 mph    
Max Gust Speed 40 mph    
Visibility 10 miles    
Events      
T = Trace of Precipitation, MM = Missing Value Source: NWS Daily Summary

Daily Weather History Graph

Daily Weather History Graph

Search for Another Location

Airport or City:

Astronomy

Oct. 17, 2019 Rise Set
Actual Time 7:12 AM EDT 6:21 PM EDT
Civil Twilight 6:45 AM EDT 6:48 PM EDT
Nautical Twilight 6:14 AM EDT 7:18 PM EDT
Astronomical Twilight 5:44 AM EDT 7:49 PM EDT
Moon 8:55 PM EDT (10/17) 10:38 AM EDT (10/17)
Length of Visible Light 12h 02m
Length of Day
11h 09m
Waning Gibbous, 87% of the Moon is Illuminated
Oct 17
Waning Gibbous
Oct 21
Last Quarter
Oct 27
New
Nov 4
First Quarter
Nov 12
Full

Hourly Weather History & Observations

Time (EDT) Temp. Dew Point Humidity Pressure Visibility Wind Dir Wind Speed Gust Speed Precip Events Conditions
12:54 AM 53.1 °F 39.9 °F 61% 29.56 in 10.0 mi West 11.5 mph - N/A   Clear
1:54 AM 54.0 °F 37.9 °F 55% 29.56 in 10.0 mi WNW 17.3 mph 38.0 mph N/A   Clear
2:54 AM 53.1 °F 42.1 °F 66% 29.58 in 10.0 mi West 9.2 mph 20.7 mph N/A   Clear
3:54 AM 53.1 °F 42.1 °F 66% 29.58 in 10.0 mi West 11.5 mph 21.9 mph N/A   Clear
4:54 AM 53.1 °F 41.0 °F 64% 29.59 in 10.0 mi West 10.4 mph 24.2 mph N/A   Clear
5:54 AM 53.1 °F 41.0 °F 64% 29.59 in 10.0 mi West 11.5 mph 20.7 mph N/A   Clear
6:54 AM 53.1 °F 42.1 °F 66% 29.60 in 10.0 mi West 10.4 mph - N/A   Clear
7:54 AM 54.0 °F 41.0 °F 62% 29.62 in 10.0 mi West 10.4 mph 21.9 mph N/A   Partly Cloudy
8:54 AM 55.9 °F 41.0 °F 57% 29.62 in 10.0 mi West 17.3 mph 26.5 mph N/A   Scattered Clouds
9:54 AM 57.9 °F 42.1 °F 56% 29.62 in 10.0 mi West 11.5 mph 23.0 mph N/A   Mostly Cloudy
10:54 AM 57.9 °F 37.9 °F 47% 29.63 in 10.0 mi WNW 16.1 mph 36.8 mph N/A   Mostly Cloudy
11:54 AM 57.9 °F 37.9 °F 47% 29.64 in 10.0 mi WNW 19.6 mph 39.1 mph N/A   Mostly Cloudy
12:54 PM 59.0 °F 41.0 °F 51% 29.64 in 10.0 mi West 21.9 mph 31.1 mph N/A   Mostly Cloudy
1:54 PM 59.0 °F 37.9 °F 46% 29.63 in 10.0 mi West 20.7 mph 40.3 mph N/A   Mostly Cloudy
2:54 PM 61.0 °F 37.9 °F 42% 29.64 in 10.0 mi West 15.0 mph 32.2 mph N/A   Clear
3:54 PM 61.0 °F 39.0 °F 44% 29.64 in 10.0 mi West 13.8 mph 26.5 mph N/A   Clear
4:54 PM 61.0 °F 37.9 °F 42% 29.65 in 10.0 mi NW 18.4 mph 33.4 mph N/A   Scattered Clouds
5:54 PM 57.9 °F 37.9 °F 47% 29.68 in 10.0 mi NW 16.1 mph 29.9 mph N/A   Clear
6:54 PM 55.9 °F 37.9 °F 51% 29.71 in 10.0 mi WNW 18.4 mph 31.1 mph N/A   Clear
7:54 PM 54.0 °F 37.0 °F 53% 29.75 in 10.0 mi NW 19.6 mph 23.0 mph N/A   Clear
8:54 PM 54.0 °F 37.0 °F 53% 29.76 in 10.0 mi NW 11.5 mph 20.7 mph N/A   Clear
9:54 PM 54.0 °F 36.0 °F 51% 29.78 in 10.0 mi NW 19.6 mph 28.8 mph N/A   Clear
10:54 PM 53.1 °F 37.0 °F 55% 29.79 in 10.0 mi NW 9.2 mph 24.2 mph N/A   Clear
11:54 PM 53.1 °F 37.0 °F 55% 29.81 in 10.0 mi WNW 12.7 mph 21.9 mph N/A   Clear